Voltar ao catálogo

COSMOS 1275 DEB

AtivoPO
NORAD 42175·DEBRIS·🇷🇺 Russia

Lançado Jun 4, 1981 de Plesetsk Cosmodrome

Loading…

Próximas Passagens (próximas 24 horas)

TLE

EnvelhecendoSource: Space-Track

Época: Sep 4, 2026, 22:11 UTC

1 42175U 81053SP  26247.92484987  .00000079  00000-0  96603-4 0  9992
2 42175  83.0303 129.1124 0140251  10.6565 359.9821 13.49762301630062

Acompanhe COSMOS 1275 DEB em tempo real com AllMySat

Download on the App Store